Location: G�ppingen
(48.7000°N, 9.6670°E)
Time: 02:43:11
(UTC+01:00)

Envisat - Visible Passes

Search period start: 22 January 2019 00:00
Search period end: 01 February 2019 00:00
Orbit: 764 x 766 km, 98.2° (Epoch: 20 January)

Date Brightness Start Highest point End Pass type
(mag) Time Alt. Az. Time Alt. Az. Time Alt. Az.
22 Jan 6.1 06:33:57 10° ENE 06:36:24 13° E 06:38:49 10° ESE visible
22 Jan 3.9 17:51:34 10° ESE 17:55:47 27° ENE 18:00:02 10° N visible
22 Jan 3.9 19:29:41 10° S 19:34:35 48° W 19:39:31 10° NNW visible
23 Jan 2.9 18:52:41 10° SSE 18:57:46 85° ENE 19:02:52 10° NNW visible
23 Jan 5.9 20:34:44 10° WSW 20:37:28 14° W 20:40:13 10° NW visible
24 Jan 5.7 06:58:19 10° NE 07:02:16 22° E 07:06:11 10° SE visible
24 Jan 3.3 18:16:22 10° SE 18:21:07 43° ENE 18:25:55 10° N visible
24 Jan 4.9 19:55:54 10° SSW 20:00:18 29° W 20:04:43 10° NNW visible
25 Jan 6.5 06:24:03 10° ENE 06:25:01 10° E 06:25:58 10° E visible
25 Jan 4.1 17:40:47 10° ESE 17:44:42 23° ENE 17:48:37 10° N visible
25 Jan 3.5 19:18:19 10° S 19:23:20 59° W 19:28:23 10° NNW visible
26 Jan 2.9 18:41:32 10° SSE 18:46:34 69° ENE 18:51:38 10° N visible
26 Jan 5.6 20:22:42 10° SW 20:26:07 18° W 20:29:32 10° NW visible
27 Jan 5.9 06:47:29 10° NE 06:50:56 18° E 06:54:22 10° SE visible
27 Jan 3.6 18:05:25 10° SE 18:10:00 35° ENE 18:14:36 10° N visible
27 Jan 4.5 19:44:21 10° SSW 19:49:00 36° W 19:53:41 10° NNW visible
28 Jan 3.2 19:07:02 10° S 19:12:06 73° WSW 19:17:12 10° NNW visible
28 Jan 6.2 20:51:13 10° W 20:52:02 10° W 20:52:51 10° WNW visible
29 Jan 5.3 07:12:19 10° NNE 07:16:45 29° E 07:21:09 10° SSE visible
29 Jan 3.0 18:30:26 10° SSE 18:35:24 56° ENE 18:40:23 10° N visible
29 Jan 5.4 20:10:52 10° SW 20:14:46 22° W 20:18:42 10° NW visible
30 Jan 6.1 06:36:48 10° NE 06:39:35 15° E 06:42:22 10° ESE visible
30 Jan 3.8 17:54:32 10° ESE 17:58:53 29° ENE 18:03:14 10° N visible
30 Jan 4.1 19:32:54 10° S 19:37:44 44° W 19:42:36 10° NNW visible
31 Jan 3.0 18:55:48 10° SSE 19:00:53 89° WSW 19:06:00 10° NNW visible
31 Jan 6.0 20:38:17 10° WSW 20:40:39 13° W 20:43:03 10° WNW visible
